<?xml version="1.0" encoding="UTF-8" standalone="no" ?>
<gpx xmlns="http://www.topografix.com/GPX/1/1" xmlns:xsi="http://www.w3.org/2001/XMLSchema-instance" xsi:schemaLocation="http://www.topografix.com/GPX/1/1 http://www.topografix.com/GPX/1/1/gpx.xsd" version="1.1" creator="VisuGPX - https://www.visugpx.com">
  <metadata>
    <name>Nocturne Faumont 2025 : 44 km sportif</name>
    <desc><![CDATA[Trace de la Nocturne de Faumont 2025 : Grand parcours sportif de 44 km]]></desc>
  </metadata>
  <trk>
    <name><![CDATA[Nocturne Faumont 2025 : 44 km sportif-20428777]]></name>
    <extensions>
      <line xmlns="http://www.topografix.com/GPX/gpx_style/0/2">
        <color>0000FF</color>
        <width>4</width>
      </line>
    </extensions>
    <trkseg>
      <trkpt lat="50.4576" lon="3.13742">
        <ele>41</ele>
        <time>2025-05-25T12:43:53Z</time>
      </trkpt>
      <trkpt lat="50.45757" lon="3.13678">
        <ele>42</ele>
        <time>2025-05-25T12:44:03Z</time>
      </trkpt>
      <trkpt lat="50.46161" lon="3.1369">
        <ele>37</ele>
        <time>2025-05-25T12:45:37Z</time>
      </trkpt>
      <trkpt lat="50.46205" lon="3.13686">
        <ele>36</ele>
        <time>2025-05-25T12:45:47Z</time>
      </trkpt>
      <trkpt lat="50.46221" lon="3.13671">
        <ele>36</ele>
        <time>2025-05-25T12:45:52Z</time>
      </trkpt>
      <trkpt lat="50.46235" lon="3.1367">
        <ele>35</ele>
        <time>2025-05-25T12:45:55Z</time>
      </trkpt>
      <trkpt lat="50.46244" lon="3.13684">
        <ele>35</ele>
        <time>2025-05-25T12:45:58Z</time>
      </trkpt>
      <trkpt lat="50.46299" lon="3.13705">
        <ele>35</ele>
        <time>2025-05-25T12:46:11Z</time>
      </trkpt>
      <trkpt lat="50.46319" lon="3.13393">
        <ele>36</ele>
        <time>2025-05-25T12:46:58Z</time>
      </trkpt>
      <trkpt lat="50.46347" lon="3.13032">
        <ele>35</ele>
        <time>2025-05-25T12:47:52Z</time>
      </trkpt>
      <trkpt lat="50.46388" lon="3.12898">
        <ele>34</ele>
        <time>2025-05-25T12:48:14Z</time>
      </trkpt>
      <trkpt lat="50.46523" lon="3.12673">
        <ele>35</ele>
        <time>2025-05-25T12:49:00Z</time>
      </trkpt>
      <trkpt lat="50.46617" lon="3.12485">
        <ele>34</ele>
        <time>2025-05-25T12:49:35Z</time>
      </trkpt>
      <trkpt lat="50.46668" lon="3.12162">
        <ele>35</ele>
        <time>2025-05-25T12:50:25Z</time>
      </trkpt>
      <trkpt lat="50.46734" lon="3.11868">
        <ele>39</ele>
        <time>2025-05-25T12:51:11Z</time>
      </trkpt>
      <trkpt lat="50.46751" lon="3.11713">
        <ele>38</ele>
        <time>2025-05-25T12:51:34Z</time>
      </trkpt>
      <trkpt lat="50.46748" lon="3.11514">
        <ele>37</ele>
        <time>2025-05-25T12:52:04Z</time>
      </trkpt>
      <trkpt lat="50.46756" lon="3.11417">
        <ele>38</ele>
        <time>2025-05-25T12:52:19Z</time>
      </trkpt>
      <trkpt lat="50.46774" lon="3.11349">
        <ele>40</ele>
        <time>2025-05-25T12:52:30Z</time>
      </trkpt>
      <trkpt lat="50.46804" lon="3.1128">
        <ele>39</ele>
        <time>2025-05-25T12:52:42Z</time>
      </trkpt>
      <trkpt lat="50.46793" lon="3.11274">
        <ele>39</ele>
        <time>2025-05-25T12:52:45Z</time>
      </trkpt>
      <trkpt lat="50.46762" lon="3.11289">
        <ele>39</ele>
        <time>2025-05-25T12:52:52Z</time>
      </trkpt>
      <trkpt lat="50.4665" lon="3.11302">
        <ele>36</ele>
        <time>2025-05-25T12:53:18Z</time>
      </trkpt>
      <trkpt lat="50.46657" lon="3.11214">
        <ele>38</ele>
        <time>2025-05-25T12:53:32Z</time>
      </trkpt>
      <trkpt lat="50.46665" lon="3.11188">
        <ele>38</ele>
        <time>2025-05-25T12:53:36Z</time>
      </trkpt>
      <trkpt lat="50.46704" lon="3.1085">
        <ele>42</ele>
        <time>2025-05-25T12:54:27Z</time>
      </trkpt>
      <trkpt lat="50.46715" lon="3.10843">
        <ele>42</ele>
        <time>2025-05-25T12:54:30Z</time>
      </trkpt>
      <trkpt lat="50.46759" lon="3.10834">
        <ele>44</ele>
        <time>2025-05-25T12:54:40Z</time>
      </trkpt>
      <trkpt lat="50.46772" lon="3.10743">
        <ele>45</ele>
        <time>2025-05-25T12:54:54Z</time>
      </trkpt>
      <trkpt lat="50.46796" lon="3.10691">
        <ele>43</ele>
        <time>2025-05-25T12:55:04Z</time>
      </trkpt>
      <trkpt lat="50.46798" lon="3.1066">
        <ele>42</ele>
        <time>2025-05-25T12:55:08Z</time>
      </trkpt>
      <trkpt lat="50.46774" lon="3.10538">
        <ele>40</ele>
        <time>2025-05-25T12:55:27Z</time>
      </trkpt>
      <trkpt lat="50.46774" lon="3.10442">
        <ele>40</ele>
        <time>2025-05-25T12:55:41Z</time>
      </trkpt>
      <trkpt lat="50.46737" lon="3.10205">
        <ele>42</ele>
        <time>2025-05-25T12:56:18Z</time>
      </trkpt>
      <trkpt lat="50.46749" lon="3.10107">
        <ele>42</ele>
        <time>2025-05-25T12:56:33Z</time>
      </trkpt>
      <trkpt lat="50.46755" lon="3.10098">
        <ele>42</ele>
        <time>2025-05-25T12:56:34Z</time>
      </trkpt>
      <trkpt lat="50.46776" lon="3.10009">
        <ele>43</ele>
        <time>2025-05-25T12:56:49Z</time>
      </trkpt>
      <trkpt lat="50.4681" lon="3.09939">
        <ele>43</ele>
        <time>2025-05-25T12:57:02Z</time>
      </trkpt>
      <trkpt lat="50.46903" lon="3.09791">
        <ele>46</ele>
        <time>2025-05-25T12:57:33Z</time>
      </trkpt>
      <trkpt lat="50.46939" lon="3.09708">
        <ele>46</ele>
        <time>2025-05-25T12:57:48Z</time>
      </trkpt>
      <trkpt lat="50.46982" lon="3.09719">
        <ele>47</ele>
        <time>2025-05-25T12:57:58Z</time>
      </trkpt>
      <trkpt lat="50.47014" lon="3.09735">
        <ele>47</ele>
        <time>2025-05-25T12:58:06Z</time>
      </trkpt>
      <trkpt lat="50.47097" lon="3.0979">
        <ele>49</ele>
        <time>2025-05-25T12:58:27Z</time>
      </trkpt>
      <trkpt lat="50.47289" lon="3.09957">
        <ele>56</ele>
        <time>2025-05-25T12:59:18Z</time>
      </trkpt>
      <trkpt lat="50.47455" lon="3.09959">
        <ele>64</ele>
        <time>2025-05-25T12:59:57Z</time>
      </trkpt>
      <trkpt lat="50.47741" lon="3.10027">
        <ele>81</ele>
        <time>2025-05-25T13:01:04Z</time>
      </trkpt>
      <trkpt lat="50.47826" lon="3.10131">
        <ele>91</ele>
        <time>2025-05-25T13:01:29Z</time>
      </trkpt>
      <trkpt lat="50.47839" lon="3.10183">
        <ele>92</ele>
        <time>2025-05-25T13:01:38Z</time>
      </trkpt>
      <trkpt lat="50.47896" lon="3.10182">
        <ele>93</ele>
        <time>2025-05-25T13:01:51Z</time>
      </trkpt>
      <trkpt lat="50.47939" lon="3.10152">
        <ele>92</ele>
        <time>2025-05-25T13:02:02Z</time>
      </trkpt>
      <trkpt lat="50.47981" lon="3.10117">
        <ele>90</ele>
        <time>2025-05-25T13:02:13Z</time>
      </trkpt>
      <trkpt lat="50.47997" lon="3.10087">
        <ele>90</ele>
        <time>2025-05-25T13:02:19Z</time>
      </trkpt>
      <trkpt lat="50.48002" lon="3.10065">
        <ele>90</ele>
        <time>2025-05-25T13:02:22Z</time>
      </trkpt>
      <trkpt lat="50.48016" lon="3.09982">
        <ele>91</ele>
        <time>2025-05-25T13:02:35Z</time>
      </trkpt>
      <trkpt lat="50.48069" lon="3.09742">
        <ele>94</ele>
        <time>2025-05-25T13:03:13Z</time>
      </trkpt>
      <trkpt lat="50.48075" lon="3.09673">
        <ele>93</ele>
        <time>2025-05-25T13:03:23Z</time>
      </trkpt>
      <trkpt lat="50.4799" lon="3.09625">
        <ele>84</ele>
        <time>2025-05-25T13:03:44Z</time>
      </trkpt>
      <trkpt lat="50.47963" lon="3.09483">
        <ele>78</ele>
        <time>2025-05-25T13:04:06Z</time>
      </trkpt>
      <trkpt lat="50.47948" lon="3.09445">
        <ele>75</ele>
        <time>2025-05-25T13:04:13Z</time>
      </trkpt>
      <trkpt lat="50.4791" lon="3.09271">
        <ele>71</ele>
        <time>2025-05-25T13:04:40Z</time>
      </trkpt>
      <trkpt lat="50.47898" lon="3.09182">
        <ele>70</ele>
        <time>2025-05-25T13:04:54Z</time>
      </trkpt>
      <trkpt lat="50.47867" lon="3.09108">
        <ele>68</ele>
        <time>2025-05-25T13:05:07Z</time>
      </trkpt>
      <trkpt lat="50.47813" lon="3.09027">
        <ele>63</ele>
        <time>2025-05-25T13:05:24Z</time>
      </trkpt>
      <trkpt lat="50.47799" lon="3.08915">
        <ele>61</ele>
        <time>2025-05-25T13:05:41Z</time>
      </trkpt>
      <trkpt lat="50.4765" lon="3.08774">
        <ele>54</ele>
        <time>2025-05-25T13:06:22Z</time>
      </trkpt>
      <trkpt lat="50.47797" lon="3.08497">
        <ele>53</ele>
        <time>2025-05-25T13:07:16Z</time>
      </trkpt>
      <trkpt lat="50.47878" lon="3.08416">
        <ele>54</ele>
        <time>2025-05-25T13:07:38Z</time>
      </trkpt>
      <trkpt lat="50.47935" lon="3.08384">
        <ele>55</ele>
        <time>2025-05-25T13:07:52Z</time>
      </trkpt>
      <trkpt lat="50.4799" lon="3.08338">
        <ele>55</ele>
        <time>2025-05-25T13:08:07Z</time>
      </trkpt>
      <trkpt lat="50.48042" lon="3.08261">
        <ele>53</ele>
        <time>2025-05-25T13:08:23Z</time>
      </trkpt>
      <trkpt lat="50.48075" lon="3.08171">
        <ele>48</ele>
        <time>2025-05-25T13:08:39Z</time>
      </trkpt>
      <trkpt lat="50.48084" lon="3.08088">
        <ele>49</ele>
        <time>2025-05-25T13:08:51Z</time>
      </trkpt>
      <trkpt lat="50.4808" lon="3.07965">
        <ele>49</ele>
        <time>2025-05-25T13:09:10Z</time>
      </trkpt>
      <trkpt lat="50.48067" lon="3.07921">
        <ele>48</ele>
        <time>2025-05-25T13:09:17Z</time>
      </trkpt>
      <trkpt lat="50.47992" lon="3.07589">
        <ele>49.3</ele>
      </trkpt>
      <trkpt lat="50.4794" lon="3.07437">
        <ele>51</ele>
      </trkpt>
      <trkpt lat="50.47911" lon="3.07219">
        <ele>52</ele>
      </trkpt>
      <trkpt lat="50.47906" lon="3.07055">
        <ele>53</ele>
      </trkpt>
      <trkpt lat="50.48191" lon="3.07055">
        <ele>50.1</ele>
      </trkpt>
      <trkpt lat="50.48286" lon="3.07018">
        <ele>49</ele>
      </trkpt>
      <trkpt lat="50.48641" lon="3.07058">
        <ele>46</ele>
      </trkpt>
      <trkpt lat="50.48888" lon="3.07079">
        <ele>44</ele>
      </trkpt>
      <trkpt lat="50.48936" lon="3.07061">
        <ele>44</ele>
      </trkpt>
      <trkpt lat="50.48979" lon="3.07064">
        <ele>44</ele>
      </trkpt>
      <trkpt lat="50.49078" lon="3.07142">
        <ele>44.1</ele>
      </trkpt>
      <trkpt lat="50.49099" lon="3.07138">
        <ele>44</ele>
      </trkpt>
      <trkpt lat="50.49136" lon="3.07094">
        <ele>44.1</ele>
      </trkpt>
    </trkseg>
  </trk>
  <trk>
    <name><![CDATA[Nocturne Faumont 2025 : 44 km sportif_2]]></name>
    <trkseg>
      <trkpt lat="50.48067" lon="3.07921">
        <ele>48</ele>
        <time>2025-05-25T13:09:17Z</time>
      </trkpt>
      <trkpt lat="50.48129" lon="3.07879">
        <ele>48</ele>
        <time>2025-05-25T13:09:33Z</time>
      </trkpt>
      <trkpt lat="50.4815" lon="3.07827">
        <ele>47</ele>
        <time>2025-05-25T13:09:42Z</time>
      </trkpt>
      <trkpt lat="50.48155" lon="3.07783">
        <ele>47</ele>
        <time>2025-05-25T13:09:48Z</time>
      </trkpt>
      <trkpt lat="50.48204" lon="3.07719">
        <ele>46</ele>
        <time>2025-05-25T13:10:03Z</time>
      </trkpt>
      <trkpt lat="50.48353" lon="3.07699">
        <ele>46</ele>
        <time>2025-05-25T13:10:38Z</time>
      </trkpt>
      <trkpt lat="50.48434" lon="3.07717">
        <ele>47</ele>
        <time>2025-05-25T13:10:57Z</time>
      </trkpt>
      <trkpt lat="50.48509" lon="3.07701">
        <ele>46</ele>
        <time>2025-05-25T13:11:15Z</time>
      </trkpt>
      <trkpt lat="50.48533" lon="3.0765">
        <ele>45</ele>
        <time>2025-05-25T13:11:24Z</time>
      </trkpt>
      <trkpt lat="50.48614" lon="3.07627">
        <ele>44</ele>
        <time>2025-05-25T13:11:44Z</time>
      </trkpt>
      <trkpt lat="50.4863" lon="3.07591">
        <ele>44</ele>
        <time>2025-05-25T13:11:50Z</time>
      </trkpt>
      <trkpt lat="50.48707" lon="3.07569">
        <ele>44</ele>
        <time>2025-05-25T13:12:08Z</time>
      </trkpt>
      <trkpt lat="50.48761" lon="3.07516">
        <ele>43</ele>
        <time>2025-05-25T13:12:23Z</time>
      </trkpt>
      <trkpt lat="50.48807" lon="3.0752">
        <ele>43</ele>
        <time>2025-05-25T13:12:34Z</time>
      </trkpt>
      <trkpt lat="50.48877" lon="3.07501">
        <ele>42</ele>
        <time>2025-05-25T13:12:51Z</time>
      </trkpt>
      <trkpt lat="50.48928" lon="3.07472">
        <ele>42</ele>
        <time>2025-05-25T13:13:03Z</time>
      </trkpt>
      <trkpt lat="50.49089" lon="3.07626">
        <ele>43</ele>
        <time>2025-05-25T13:13:47Z</time>
      </trkpt>
      <trkpt lat="50.49135" lon="3.07093">
        <ele>44</ele>
        <time>2025-05-25T13:15:07Z</time>
      </trkpt>
    </trkseg>
  </trk>
  <trk>
    <name><![CDATA[Nocturne Faumont 2025 : 44 km sportif_3]]></name>
    <trkseg>
      <trkpt lat="50.49135" lon="3.07093">
        <ele>44</ele>
        <time>2025-05-25T13:15:07Z</time>
      </trkpt>
      <trkpt lat="50.49153" lon="3.07076">
        <ele>44</ele>
        <time>2025-05-25T13:15:12Z</time>
      </trkpt>
      <trkpt lat="50.49295" lon="3.06986">
        <ele>44</ele>
        <time>2025-05-25T13:15:48Z</time>
      </trkpt>
      <trkpt lat="50.49285" lon="3.06881">
        <ele>45</ele>
        <time>2025-05-25T13:16:04Z</time>
      </trkpt>
      <trkpt lat="50.49271" lon="3.06813">
        <ele>45</ele>
        <time>2025-05-25T13:16:14Z</time>
      </trkpt>
      <trkpt lat="50.49242" lon="3.06708">
        <ele>49</ele>
        <time>2025-05-25T13:16:31Z</time>
      </trkpt>
      <trkpt lat="50.49233" lon="3.06667">
        <ele>52</ele>
        <time>2025-05-25T13:16:38Z</time>
      </trkpt>
      <trkpt lat="50.49229" lon="3.06676">
        <ele>52</ele>
        <time>2025-05-25T13:16:39Z</time>
      </trkpt>
      <trkpt lat="50.49198" lon="3.06687">
        <ele>54</ele>
        <time>2025-05-25T13:16:47Z</time>
      </trkpt>
      <trkpt lat="50.49171" lon="3.06716">
        <ele>54</ele>
        <time>2025-05-25T13:16:54Z</time>
      </trkpt>
      <trkpt lat="50.49081" lon="3.06799">
        <ele>50</ele>
        <time>2025-05-25T13:17:19Z</time>
      </trkpt>
      <trkpt lat="50.49071" lon="3.06792">
        <ele>50</ele>
        <time>2025-05-25T13:17:21Z</time>
      </trkpt>
      <trkpt lat="50.49064" lon="3.06752">
        <ele>52</ele>
        <time>2025-05-25T13:17:28Z</time>
      </trkpt>
      <trkpt lat="50.49067" lon="3.06677">
        <ele>53</ele>
        <time>2025-05-25T13:17:39Z</time>
      </trkpt>
      <trkpt lat="50.49065" lon="3.06637">
        <ele>53</ele>
        <time>2025-05-25T13:17:45Z</time>
      </trkpt>
      <trkpt lat="50.49074" lon="3.06491">
        <ele>53</ele>
        <time>2025-05-25T13:18:06Z</time>
      </trkpt>
      <trkpt lat="50.49073" lon="3.06466">
        <ele>53</ele>
        <time>2025-05-25T13:18:10Z</time>
      </trkpt>
      <trkpt lat="50.49077" lon="3.06447">
        <ele>54</ele>
        <time>2025-05-25T13:18:13Z</time>
      </trkpt>
      <trkpt lat="50.49077" lon="3.06391">
        <ele>54</ele>
        <time>2025-05-25T13:18:21Z</time>
      </trkpt>
      <trkpt lat="50.49072" lon="3.06366">
        <ele>53</ele>
        <time>2025-05-25T13:18:25Z</time>
      </trkpt>
      <trkpt lat="50.49071" lon="3.06318">
        <ele>53</ele>
        <time>2025-05-25T13:18:32Z</time>
      </trkpt>
      <trkpt lat="50.49075" lon="3.06242">
        <ele>52</ele>
        <time>2025-05-25T13:18:44Z</time>
      </trkpt>
      <trkpt lat="50.49085" lon="3.06174">
        <ele>54</ele>
        <time>2025-05-25T13:18:54Z</time>
      </trkpt>
      <trkpt lat="50.49092" lon="3.06262">
        <ele>54</ele>
        <time>2025-05-25T13:19:07Z</time>
      </trkpt>
      <trkpt lat="50.49108" lon="3.06346">
        <ele>55</ele>
        <time>2025-05-25T13:19:20Z</time>
      </trkpt>
      <trkpt lat="50.49156" lon="3.06478">
        <ele>57</ele>
        <time>2025-05-25T13:19:43Z</time>
      </trkpt>
      <trkpt lat="50.49175" lon="3.06553">
        <ele>57</ele>
        <time>2025-05-25T13:19:55Z</time>
      </trkpt>
      <trkpt lat="50.49195" lon="3.06577">
        <ele>56</ele>
        <time>2025-05-25T13:20:01Z</time>
      </trkpt>
      <trkpt lat="50.49215" lon="3.06581">
        <ele>55</ele>
        <time>2025-05-25T13:20:06Z</time>
      </trkpt>
      <trkpt lat="50.49241" lon="3.06592">
        <ele>54</ele>
        <time>2025-05-25T13:20:12Z</time>
      </trkpt>
      <trkpt lat="50.49249" lon="3.06574">
        <ele>54</ele>
        <time>2025-05-25T13:20:15Z</time>
      </trkpt>
      <trkpt lat="50.49259" lon="3.06569">
        <ele>54</ele>
        <time>2025-05-25T13:20:18Z</time>
      </trkpt>
      <trkpt lat="50.4928" lon="3.06548">
        <ele>55</ele>
        <time>2025-05-25T13:20:23Z</time>
      </trkpt>
      <trkpt lat="50.4929" lon="3.0655">
        <ele>54</ele>
        <time>2025-05-25T13:20:26Z</time>
      </trkpt>
      <trkpt lat="50.49313" lon="3.06562">
        <ele>54</ele>
        <time>2025-05-25T13:20:31Z</time>
      </trkpt>
      <trkpt lat="50.49382" lon="3.06563">
        <ele>54</ele>
        <time>2025-05-25T13:20:47Z</time>
      </trkpt>
      <trkpt lat="50.494" lon="3.06567">
        <ele>54</ele>
        <time>2025-05-25T13:20:52Z</time>
      </trkpt>
      <trkpt lat="50.49425" lon="3.06574">
        <ele>55</ele>
        <time>2025-05-25T13:20:58Z</time>
      </trkpt>
      <trkpt lat="50.49438" lon="3.06589">
        <ele>54</ele>
        <time>2025-05-25T13:21:01Z</time>
      </trkpt>
      <trkpt lat="50.49466" lon="3.06583">
        <ele>55</ele>
        <time>2025-05-25T13:21:08Z</time>
      </trkpt>
      <trkpt lat="50.49481" lon="3.06584">
        <ele>56</ele>
        <time>2025-05-25T13:21:12Z</time>
      </trkpt>
      <trkpt lat="50.49521" lon="3.06602">
        <ele>55</ele>
        <time>2025-05-25T13:21:21Z</time>
      </trkpt>
      <trkpt lat="50.49578" lon="3.06494">
        <ele>54</ele>
        <time>2025-05-25T13:21:42Z</time>
      </trkpt>
      <trkpt lat="50.49554" lon="3.06462">
        <ele>54</ele>
        <time>2025-05-25T13:21:49Z</time>
      </trkpt>
      <trkpt lat="50.49677" lon="3.06183">
        <ele>53</ele>
        <time>2025-05-25T13:22:40Z</time>
      </trkpt>
      <trkpt lat="50.49751" lon="3.06322">
        <ele>49</ele>
        <time>2025-05-25T13:23:07Z</time>
      </trkpt>
      <trkpt lat="50.49838" lon="3.0656">
        <ele>51</ele>
        <time>2025-05-25T13:23:48Z</time>
      </trkpt>
      <trkpt lat="50.49859" lon="3.0654">
        <ele>49</ele>
        <time>2025-05-25T13:23:53Z</time>
      </trkpt>
      <trkpt lat="50.49909" lon="3.06629">
        <ele>50</ele>
        <time>2025-05-25T13:24:11Z</time>
      </trkpt>
      <trkpt lat="50.49899" lon="3.06643">
        <ele>51</ele>
        <time>2025-05-25T13:24:14Z</time>
      </trkpt>
      <trkpt lat="50.49916" lon="3.06671">
        <ele>51</ele>
        <time>2025-05-25T13:24:20Z</time>
      </trkpt>
      <trkpt lat="50.50107" lon="3.06417">
        <ele>53</ele>
        <time>2025-05-25T13:25:18Z</time>
      </trkpt>
      <trkpt lat="50.50209" lon="3.06598">
        <ele>52</ele>
        <time>2025-05-25T13:25:54Z</time>
      </trkpt>
      <trkpt lat="50.50205" lon="3.06567">
        <ele>52</ele>
        <time>2025-05-25T13:25:59Z</time>
      </trkpt>
      <trkpt lat="50.50209" lon="3.0653">
        <ele>51</ele>
        <time>2025-05-25T13:26:04Z</time>
      </trkpt>
      <trkpt lat="50.502" lon="3.06493">
        <ele>52</ele>
        <time>2025-05-25T13:26:10Z</time>
      </trkpt>
      <trkpt lat="50.50198" lon="3.06462">
        <ele>53</ele>
        <time>2025-05-25T13:26:15Z</time>
      </trkpt>
      <trkpt lat="50.50204" lon="3.06441">
        <ele>53</ele>
        <time>2025-05-25T13:26:18Z</time>
      </trkpt>
      <trkpt lat="50.50225" lon="3.064">
        <ele>53</ele>
        <time>2025-05-25T13:26:26Z</time>
      </trkpt>
      <trkpt lat="50.50224" lon="3.06358">
        <ele>55</ele>
        <time>2025-05-25T13:26:32Z</time>
      </trkpt>
      <trkpt lat="50.50242" lon="3.06341">
        <ele>56</ele>
        <time>2025-05-25T13:26:37Z</time>
      </trkpt>
      <trkpt lat="50.50271" lon="3.06342">
        <ele>57</ele>
        <time>2025-05-25T13:26:44Z</time>
      </trkpt>
      <trkpt lat="50.50305" lon="3.06347">
        <ele>56</ele>
        <time>2025-05-25T13:26:52Z</time>
      </trkpt>
      <trkpt lat="50.50321" lon="3.06353">
        <ele>56</ele>
        <time>2025-05-25T13:26:56Z</time>
      </trkpt>
      <trkpt lat="50.50336" lon="3.06343">
        <ele>57</ele>
        <time>2025-05-25T13:27:00Z</time>
      </trkpt>
      <trkpt lat="50.50361" lon="3.06348">
        <ele>55</ele>
        <time>2025-05-25T13:27:06Z</time>
      </trkpt>
      <trkpt lat="50.50367" lon="3.06342">
        <ele>56</ele>
        <time>2025-05-25T13:27:07Z</time>
      </trkpt>
      <trkpt lat="50.50401" lon="3.06289">
        <ele>58</ele>
        <time>2025-05-25T13:27:18Z</time>
      </trkpt>
      <trkpt lat="50.504" lon="3.06277">
        <ele>59</ele>
        <time>2025-05-25T13:27:20Z</time>
      </trkpt>
      <trkpt lat="50.50406" lon="3.06274">
        <ele>60</ele>
        <time>2025-05-25T13:27:22Z</time>
      </trkpt>
      <trkpt lat="50.50412" lon="3.06283">
        <ele>59</ele>
        <time>2025-05-25T13:27:24Z</time>
      </trkpt>
      <trkpt lat="50.50424" lon="3.06284">
        <ele>59</ele>
        <time>2025-05-25T13:27:26Z</time>
      </trkpt>
      <trkpt lat="50.5044" lon="3.0629">
        <ele>59</ele>
        <time>2025-05-25T13:27:30Z</time>
      </trkpt>
      <trkpt lat="50.50461" lon="3.06328">
        <ele>57</ele>
        <time>2025-05-25T13:27:38Z</time>
      </trkpt>
      <trkpt lat="50.50467" lon="3.06352">
        <ele>57</ele>
        <time>2025-05-25T13:27:42Z</time>
      </trkpt>
      <trkpt lat="50.50486" lon="3.06398">
        <ele>56</ele>
        <time>2025-05-25T13:27:50Z</time>
      </trkpt>
      <trkpt lat="50.50561" lon="3.0644">
        <ele>58</ele>
        <time>2025-05-25T13:28:08Z</time>
      </trkpt>
      <trkpt lat="50.50589" lon="3.06415">
        <ele>62</ele>
        <time>2025-05-25T13:28:16Z</time>
      </trkpt>
      <trkpt lat="50.50599" lon="3.06401">
        <ele>62</ele>
        <time>2025-05-25T13:28:19Z</time>
      </trkpt>
      <trkpt lat="50.50607" lon="3.06406">
        <ele>61</ele>
        <time>2025-05-25T13:28:21Z</time>
      </trkpt>
      <trkpt lat="50.50609" lon="3.06414">
        <ele>61</ele>
        <time>2025-05-25T13:28:22Z</time>
      </trkpt>
      <trkpt lat="50.5064" lon="3.0642">
        <ele>58</ele>
        <time>2025-05-25T13:28:30Z</time>
      </trkpt>
      <trkpt lat="50.50649" lon="3.06409">
        <ele>58</ele>
        <time>2025-05-25T13:28:32Z</time>
      </trkpt>
      <trkpt lat="50.50656" lon="3.06391">
        <ele>59</ele>
        <time>2025-05-25T13:28:35Z</time>
      </trkpt>
      <trkpt lat="50.50697" lon="3.06333">
        <ele>59</ele>
        <time>2025-05-25T13:28:48Z</time>
      </trkpt>
      <trkpt lat="50.50702" lon="3.06296">
        <ele>60</ele>
        <time>2025-05-25T13:28:54Z</time>
      </trkpt>
      <trkpt lat="50.50697" lon="3.06275">
        <ele>61</ele>
        <time>2025-05-25T13:28:57Z</time>
      </trkpt>
      <trkpt lat="50.50698" lon="3.0624">
        <ele>62</ele>
        <time>2025-05-25T13:29:02Z</time>
      </trkpt>
      <trkpt lat="50.50701" lon="3.0623">
        <ele>62</ele>
        <time>2025-05-25T13:29:04Z</time>
      </trkpt>
      <trkpt lat="50.50734" lon="3.0618">
        <ele>63</ele>
        <time>2025-05-25T13:29:15Z</time>
      </trkpt>
      <trkpt lat="50.50759" lon="3.06179">
        <ele>62</ele>
        <time>2025-05-25T13:29:21Z</time>
      </trkpt>
      <trkpt lat="50.5077" lon="3.06161">
        <ele>62</ele>
        <time>2025-05-25T13:29:24Z</time>
      </trkpt>
      <trkpt lat="50.50796" lon="3.06149">
        <ele>61</ele>
        <time>2025-05-25T13:29:31Z</time>
      </trkpt>
      <trkpt lat="50.50809" lon="3.06135">
        <ele>61</ele>
        <time>2025-05-25T13:29:34Z</time>
      </trkpt>
      <trkpt lat="50.5083" lon="3.06129">
        <ele>61</ele>
        <time>2025-05-25T13:29:39Z</time>
      </trkpt>
      <trkpt lat="50.50835" lon="3.06117">
        <ele>61</ele>
        <time>2025-05-25T13:29:41Z</time>
      </trkpt>
      <trkpt lat="50.50855" lon="3.06094">
        <ele>61</ele>
        <time>2025-05-25T13:29:47Z</time>
      </trkpt>
      <trkpt lat="50.5085" lon="3.06043">
        <ele>62</ele>
        <time>2025-05-25T13:29:55Z</time>
      </trkpt>
      <trkpt lat="50.50833" lon="3.06003">
        <ele>64</ele>
        <time>2025-05-25T13:30:02Z</time>
      </trkpt>
      <trkpt lat="50.50767" lon="3.05902">
        <ele>65</ele>
        <time>2025-05-25T13:30:24Z</time>
      </trkpt>
      <trkpt lat="50.5069" lon="3.05732">
        <ele>63</ele>
        <time>2025-05-25T13:30:55Z</time>
      </trkpt>
      <trkpt lat="50.50646" lon="3.05666">
        <ele>61</ele>
        <time>2025-05-25T13:31:09Z</time>
      </trkpt>
      <trkpt lat="50.50505" lon="3.05862">
        <ele>61</ele>
        <time>2025-05-25T13:31:53Z</time>
      </trkpt>
      <trkpt lat="50.50415" lon="3.05701">
        <ele>62</ele>
        <time>2025-05-25T13:32:25Z</time>
      </trkpt>
      <trkpt lat="50.50394" lon="3.05658">
        <ele>62</ele>
        <time>2025-05-25T13:32:33Z</time>
      </trkpt>
      <trkpt lat="50.50324" lon="3.0553">
        <ele>62</ele>
        <time>2025-05-25T13:32:58Z</time>
      </trkpt>
      <trkpt lat="50.503" lon="3.0548">
        <ele>61</ele>
        <time>2025-05-25T13:33:07Z</time>
      </trkpt>
      <trkpt lat="50.50292" lon="3.05454">
        <ele>61</ele>
        <time>2025-05-25T13:33:11Z</time>
      </trkpt>
      <trkpt lat="50.50273" lon="3.05438">
        <ele>61</ele>
        <time>2025-05-25T13:33:16Z</time>
      </trkpt>
      <trkpt lat="50.50257" lon="3.05402">
        <ele>60</ele>
        <time>2025-05-25T13:33:23Z</time>
      </trkpt>
      <trkpt lat="50.5024" lon="3.05378">
        <ele>58</ele>
        <time>2025-05-25T13:33:28Z</time>
      </trkpt>
      <trkpt lat="50.50232" lon="3.05371">
        <ele>57</ele>
        <time>2025-05-25T13:33:30Z</time>
      </trkpt>
      <trkpt lat="50.50224" lon="3.05369">
        <ele>57</ele>
        <time>2025-05-25T13:33:32Z</time>
      </trkpt>
      <trkpt lat="50.50224" lon="3.0541">
        <ele>58</ele>
        <time>2025-05-25T13:33:38Z</time>
      </trkpt>
      <trkpt lat="50.5022" lon="3.0543">
        <ele>58</ele>
        <time>2025-05-25T13:33:41Z</time>
      </trkpt>
      <trkpt lat="50.50224" lon="3.05502">
        <ele>60</ele>
        <time>2025-05-25T13:33:52Z</time>
      </trkpt>
      <trkpt lat="50.50234" lon="3.05559">
        <ele>59</ele>
        <time>2025-05-25T13:34:01Z</time>
      </trkpt>
      <trkpt lat="50.50232" lon="3.05604">
        <ele>58</ele>
        <time>2025-05-25T13:34:08Z</time>
      </trkpt>
      <trkpt lat="50.50243" lon="3.05641">
        <ele>58</ele>
        <time>2025-05-25T13:34:14Z</time>
      </trkpt>
      <trkpt lat="50.5027" lon="3.05663">
        <ele>59</ele>
        <time>2025-05-25T13:34:21Z</time>
      </trkpt>
      <trkpt lat="50.50297" lon="3.05741">
        <ele>59</ele>
        <time>2025-05-25T13:34:34Z</time>
      </trkpt>
      <trkpt lat="50.50311" lon="3.05804">
        <ele>58</ele>
        <time>2025-05-25T13:34:44Z</time>
      </trkpt>
      <trkpt lat="50.50316" lon="3.05837">
        <ele>58</ele>
        <time>2025-05-25T13:34:49Z</time>
      </trkpt>
      <trkpt lat="50.50315" lon="3.05865">
        <ele>58</ele>
        <time>2025-05-25T13:34:53Z</time>
      </trkpt>
      <trkpt lat="50.50312" lon="3.05893">
        <ele>59</ele>
        <time>2025-05-25T13:34:57Z</time>
      </trkpt>
      <trkpt lat="50.50299" lon="3.05912">
        <ele>58</ele>
        <time>2025-05-25T13:35:01Z</time>
      </trkpt>
      <trkpt lat="50.50279" lon="3.05924">
        <ele>58</ele>
        <time>2025-05-25T13:35:06Z</time>
      </trkpt>
      <trkpt lat="50.50269" lon="3.05926">
        <ele>57</ele>
        <time>2025-05-25T13:35:09Z</time>
      </trkpt>
      <trkpt lat="50.5023" lon="3.05947">
        <ele>57</ele>
        <time>2025-05-25T13:35:18Z</time>
      </trkpt>
      <trkpt lat="50.50196" lon="3.05996">
        <ele>57</ele>
        <time>2025-05-25T13:35:29Z</time>
      </trkpt>
      <trkpt lat="50.50174" lon="3.06009">
        <ele>57</ele>
        <time>2025-05-25T13:35:35Z</time>
      </trkpt>
      <trkpt lat="50.50122" lon="3.05994">
        <ele>56</ele>
        <time>2025-05-25T13:35:47Z</time>
      </trkpt>
      <trkpt lat="50.50081" lon="3.05942">
        <ele>55</ele>
        <time>2025-05-25T13:35:59Z</time>
      </trkpt>
      <trkpt lat="50.50031" lon="3.05847">
        <ele>56</ele>
        <time>2025-05-25T13:36:18Z</time>
      </trkpt>
      <trkpt lat="50.49969" lon="3.05744">
        <ele>52</ele>
        <time>2025-05-25T13:36:39Z</time>
      </trkpt>
      <trkpt lat="50.4993" lon="3.05747">
        <ele>51</ele>
        <time>2025-05-25T13:36:48Z</time>
      </trkpt>
      <trkpt lat="50.49894" lon="3.05773">
        <ele>50</ele>
        <time>2025-05-25T13:36:57Z</time>
      </trkpt>
      <trkpt lat="50.49869" lon="3.05828">
        <ele>51</ele>
        <time>2025-05-25T13:37:07Z</time>
      </trkpt>
      <trkpt lat="50.49848" lon="3.05833">
        <ele>50</ele>
        <time>2025-05-25T13:37:12Z</time>
      </trkpt>
      <trkpt lat="50.49824" lon="3.05833">
        <ele>49</ele>
        <time>2025-05-25T13:37:18Z</time>
      </trkpt>
      <trkpt lat="50.49791" lon="3.05865">
        <ele>47</ele>
        <time>2025-05-25T13:37:27Z</time>
      </trkpt>
      <trkpt lat="50.49783" lon="3.05887">
        <ele>47</ele>
        <time>2025-05-25T13:37:30Z</time>
      </trkpt>
      <trkpt lat="50.4973" lon="3.05919">
        <ele>47</ele>
        <time>2025-05-25T13:37:44Z</time>
      </trkpt>
      <trkpt lat="50.4971" lon="3.05943">
        <ele>48</ele>
        <time>2025-05-25T13:37:50Z</time>
      </trkpt>
      <trkpt lat="50.49698" lon="3.05946">
        <ele>49</ele>
        <time>2025-05-25T13:37:52Z</time>
      </trkpt>
      <trkpt lat="50.49685" lon="3.05945">
        <ele>50</ele>
        <time>2025-05-25T13:37:55Z</time>
      </trkpt>
      <trkpt lat="50.49669" lon="3.05957">
        <ele>51</ele>
        <time>2025-05-25T13:38:00Z</time>
      </trkpt>
      <trkpt lat="50.49647" lon="3.05955">
        <ele>52</ele>
        <time>2025-05-25T13:38:05Z</time>
      </trkpt>
      <trkpt lat="50.49629" lon="3.05942">
        <ele>51</ele>
        <time>2025-05-25T13:38:09Z</time>
      </trkpt>
      <trkpt lat="50.49613" lon="3.05942">
        <ele>51</ele>
        <time>2025-05-25T13:38:13Z</time>
      </trkpt>
      <trkpt lat="50.49591" lon="3.05962">
        <ele>52</ele>
        <time>2025-05-25T13:38:19Z</time>
      </trkpt>
      <trkpt lat="50.49551" lon="3.05972">
        <ele>53</ele>
        <time>2025-05-25T13:38:29Z</time>
      </trkpt>
      <trkpt lat="50.49546" lon="3.05978">
        <ele>53</ele>
        <time>2025-05-25T13:38:30Z</time>
      </trkpt>
      <trkpt lat="50.49527" lon="3.05973">
        <ele>53</ele>
        <time>2025-05-25T13:38:35Z</time>
      </trkpt>
      <trkpt lat="50.49507" lon="3.05951">
        <ele>53</ele>
        <time>2025-05-25T13:38:40Z</time>
      </trkpt>
      <trkpt lat="50.49497" lon="3.05948">
        <ele>52</ele>
        <time>2025-05-25T13:38:43Z</time>
      </trkpt>
      <trkpt lat="50.49485" lon="3.05951">
        <ele>52</ele>
        <time>2025-05-25T13:38:45Z</time>
      </trkpt>
      <trkpt lat="50.49461" lon="3.05987">
        <ele>54</ele>
        <time>2025-05-25T13:38:53Z</time>
      </trkpt>
      <trkpt lat="50.49432" lon="3.06012">
        <ele>54</ele>
        <time>2025-05-25T13:39:01Z</time>
      </trkpt>
      <trkpt lat="50.49399" lon="3.06003">
        <ele>54</ele>
        <time>2025-05-25T13:39:09Z</time>
      </trkpt>
      <trkpt lat="50.49388" lon="3.05985">
        <ele>54</ele>
        <time>2025-05-25T13:39:12Z</time>
      </trkpt>
      <trkpt lat="50.49368" lon="3.05915">
        <ele>53</ele>
        <time>2025-05-25T13:39:24Z</time>
      </trkpt>
      <trkpt lat="50.49297" lon="3.05831">
        <ele>54</ele>
        <time>2025-05-25T13:39:45Z</time>
      </trkpt>
      <trkpt lat="50.49295" lon="3.05797">
        <ele>53</ele>
        <time>2025-05-25T13:39:50Z</time>
      </trkpt>
      <trkpt lat="50.49289" lon="3.05774">
        <ele>53</ele>
        <time>2025-05-25T13:39:53Z</time>
      </trkpt>
      <trkpt lat="50.49281" lon="3.05762">
        <ele>53</ele>
        <time>2025-05-25T13:39:56Z</time>
      </trkpt>
      <trkpt lat="50.49261" lon="3.05715">
        <ele>53</ele>
        <time>2025-05-25T13:40:04Z</time>
      </trkpt>
      <trkpt lat="50.49251" lon="3.05703">
        <ele>54</ele>
        <time>2025-05-25T13:40:07Z</time>
      </trkpt>
      <trkpt lat="50.49241" lon="3.05646">
        <ele>52</ele>
        <time>2025-05-25T13:40:16Z</time>
      </trkpt>
      <trkpt lat="50.492" lon="3.05624">
        <ele>54</ele>
        <time>2025-05-25T13:40:26Z</time>
      </trkpt>
      <trkpt lat="50.4919" lon="3.05615">
        <ele>54</ele>
        <time>2025-05-25T13:40:29Z</time>
      </trkpt>
      <trkpt lat="50.49205" lon="3.06069">
        <ele>56</ele>
        <time>2025-05-25T13:41:36Z</time>
      </trkpt>
      <trkpt lat="50.491" lon="3.05959">
        <ele>54</ele>
        <time>2025-05-25T13:42:06Z</time>
      </trkpt>
      <trkpt lat="50.49099" lon="3.05826">
        <ele>56</ele>
        <time>2025-05-25T13:42:26Z</time>
      </trkpt>
      <trkpt lat="50.49095" lon="3.05733">
        <ele>54</ele>
        <time>2025-05-25T13:42:39Z</time>
      </trkpt>
      <trkpt lat="50.49098" lon="3.05579">
        <ele>54</ele>
        <time>2025-05-25T13:43:02Z</time>
      </trkpt>
      <trkpt lat="50.49133" lon="3.05564">
        <ele>53</ele>
        <time>2025-05-25T13:43:11Z</time>
      </trkpt>
      <trkpt lat="50.49142" lon="3.05578">
        <ele>54</ele>
        <time>2025-05-25T13:43:14Z</time>
      </trkpt>
      <trkpt lat="50.49188" lon="3.05604">
        <ele>54</ele>
        <time>2025-05-25T13:43:25Z</time>
      </trkpt>
      <trkpt lat="50.49187" lon="3.05587">
        <ele>53</ele>
        <time>2025-05-25T13:43:28Z</time>
      </trkpt>
      <trkpt lat="50.49259" lon="3.05431">
        <ele>47</ele>
        <time>2025-05-25T13:43:56Z</time>
      </trkpt>
      <trkpt lat="50.49175" lon="3.05211">
        <ele>49</ele>
        <time>2025-05-25T13:44:34Z</time>
      </trkpt>
      <trkpt lat="50.49104" lon="3.05034">
        <ele>52</ele>
        <time>2025-05-25T13:45:06Z</time>
      </trkpt>
      <trkpt lat="50.49102" lon="3.05017">
        <ele>53</ele>
        <time>2025-05-25T13:45:08Z</time>
      </trkpt>
      <trkpt lat="50.49115" lon="3.04999">
        <ele>53</ele>
        <time>2025-05-25T13:45:12Z</time>
      </trkpt>
      <trkpt lat="50.49155" lon="3.04964">
        <ele>54</ele>
        <time>2025-05-25T13:45:23Z</time>
      </trkpt>
      <trkpt lat="50.49182" lon="3.04935">
        <ele>54</ele>
        <time>2025-05-25T13:45:31Z</time>
      </trkpt>
      <trkpt lat="50.492" lon="3.04906">
        <ele>54</ele>
        <time>2025-05-25T13:45:37Z</time>
      </trkpt>
      <trkpt lat="50.49202" lon="3.04892">
        <ele>55</ele>
        <time>2025-05-25T13:45:39Z</time>
      </trkpt>
      <trkpt lat="50.49184" lon="3.04735">
        <ele>58</ele>
        <time>2025-05-25T13:46:02Z</time>
      </trkpt>
      <trkpt lat="50.48982" lon="3.04764">
        <ele>56</ele>
        <time>2025-05-25T13:46:50Z</time>
      </trkpt>
      <trkpt lat="50.48946" lon="3.04772">
        <ele>56</ele>
        <time>2025-05-25T13:46:58Z</time>
      </trkpt>
      <trkpt lat="50.48877" lon="3.04771">
        <ele>57</ele>
        <time>2025-05-25T13:47:14Z</time>
      </trkpt>
      <trkpt lat="50.48842" lon="3.04754">
        <ele>58</ele>
        <time>2025-05-25T13:47:23Z</time>
      </trkpt>
      <trkpt lat="50.48822" lon="3.04737">
        <ele>58</ele>
        <time>2025-05-25T13:47:28Z</time>
      </trkpt>
      <trkpt lat="50.48686" lon="3.04566">
        <ele>59</ele>
        <time>2025-05-25T13:48:09Z</time>
      </trkpt>
      <trkpt lat="50.4865" lon="3.04538">
        <ele>61</ele>
        <time>2025-05-25T13:48:18Z</time>
      </trkpt>
      <trkpt lat="50.48561" lon="3.04492">
        <ele>63</ele>
        <time>2025-05-25T13:48:40Z</time>
      </trkpt>
      <trkpt lat="50.48524" lon="3.0446">
        <ele>63</ele>
        <time>2025-05-25T13:48:50Z</time>
      </trkpt>
      <trkpt lat="50.48517" lon="3.04435">
        <ele>63</ele>
        <time>2025-05-25T13:48:54Z</time>
      </trkpt>
      <trkpt lat="50.48524" lon="3.04249">
        <ele>63</ele>
        <time>2025-05-25T13:49:22Z</time>
      </trkpt>
      <trkpt lat="50.4852" lon="3.04242">
        <ele>63</ele>
        <time>2025-05-25T13:49:23Z</time>
      </trkpt>
      <trkpt lat="50.48511" lon="3.04245">
        <ele>63</ele>
        <time>2025-05-25T13:49:25Z</time>
      </trkpt>
      <trkpt lat="50.48501" lon="3.04276">
        <ele>63</ele>
        <time>2025-05-25T13:49:30Z</time>
      </trkpt>
      <trkpt lat="50.48495" lon="3.04287">
        <ele>62</ele>
        <time>2025-05-25T13:49:33Z</time>
      </trkpt>
      <trkpt lat="50.48454" lon="3.04312">
        <ele>61</ele>
        <time>2025-05-25T13:49:43Z</time>
      </trkpt>
      <trkpt lat="50.48438" lon="3.04305">
        <ele>61</ele>
        <time>2025-05-25T13:49:47Z</time>
      </trkpt>
      <trkpt lat="50.48394" lon="3.04189">
        <ele>60</ele>
        <time>2025-05-25T13:50:07Z</time>
      </trkpt>
      <trkpt lat="50.48376" lon="3.04147">
        <ele>60</ele>
        <time>2025-05-25T13:50:14Z</time>
      </trkpt>
      <trkpt lat="50.48367" lon="3.04134">
        <ele>59</ele>
        <time>2025-05-25T13:50:17Z</time>
      </trkpt>
      <trkpt lat="50.48339" lon="3.04134">
        <ele>58</ele>
        <time>2025-05-25T13:50:24Z</time>
      </trkpt>
      <trkpt lat="50.48294" lon="3.04154">
        <ele>58</ele>
        <time>2025-05-25T13:50:35Z</time>
      </trkpt>
      <trkpt lat="50.48279" lon="3.04164">
        <ele>58</ele>
        <time>2025-05-25T13:50:38Z</time>
      </trkpt>
      <trkpt lat="50.48094" lon="3.04319">
        <ele>58</ele>
        <time>2025-05-25T13:51:27Z</time>
      </trkpt>
      <trkpt lat="50.48017" lon="3.04395">
        <ele>58</ele>
        <time>2025-05-25T13:51:49Z</time>
      </trkpt>
      <trkpt lat="50.47972" lon="3.04471">
        <ele>59</ele>
        <time>2025-05-25T13:52:04Z</time>
      </trkpt>
      <trkpt lat="50.47908" lon="3.04545">
        <ele>60</ele>
        <time>2025-05-25T13:52:23Z</time>
      </trkpt>
      <trkpt lat="50.47807" lon="3.04624">
        <ele>60</ele>
        <time>2025-05-25T13:52:49Z</time>
      </trkpt>
      <trkpt lat="50.47797" lon="3.04629">
        <ele>60</ele>
        <time>2025-05-25T13:52:51Z</time>
      </trkpt>
      <trkpt lat="50.47785" lon="3.04628">
        <ele>61</ele>
        <time>2025-05-25T13:52:54Z</time>
      </trkpt>
      <trkpt lat="50.47725" lon="3.04603">
        <ele>60</ele>
        <time>2025-05-25T13:53:09Z</time>
      </trkpt>
      <trkpt lat="50.47656" lon="3.04585">
        <ele>58</ele>
        <time>2025-05-25T13:53:25Z</time>
      </trkpt>
      <trkpt lat="50.47619" lon="3.04581">
        <ele>57</ele>
        <time>2025-05-25T13:53:34Z</time>
      </trkpt>
      <trkpt lat="50.47531" lon="3.04601">
        <ele>57</ele>
        <time>2025-05-25T13:53:55Z</time>
      </trkpt>
      <trkpt lat="50.47418" lon="3.04622">
        <ele>57</ele>
        <time>2025-05-25T13:54:21Z</time>
      </trkpt>
      <trkpt lat="50.47369" lon="3.04628">
        <ele>57</ele>
        <time>2025-05-25T13:54:33Z</time>
      </trkpt>
      <trkpt lat="50.47364" lon="3.04637">
        <ele>57</ele>
        <time>2025-05-25T13:54:34Z</time>
      </trkpt>
      <trkpt lat="50.47568" lon="3.05181">
        <ele>64</ele>
        <time>2025-05-25T13:56:08Z</time>
      </trkpt>
      <trkpt lat="50.47529" lon="3.05218">
        <ele>64</ele>
        <time>2025-05-25T13:56:19Z</time>
      </trkpt>
      <trkpt lat="50.47632" lon="3.05407">
        <ele>64</ele>
        <time>2025-05-25T13:56:56Z</time>
      </trkpt>
      <trkpt lat="50.47665" lon="3.05447">
        <ele>64</ele>
        <time>2025-05-25T13:57:06Z</time>
      </trkpt>
      <trkpt lat="50.47576" lon="3.05588">
        <ele>63</ele>
        <time>2025-05-25T13:57:35Z</time>
      </trkpt>
      <trkpt lat="50.47554" lon="3.05648">
        <ele>63</ele>
        <time>2025-05-25T13:57:45Z</time>
      </trkpt>
      <trkpt lat="50.47527" lon="3.05696">
        <ele>63</ele>
        <time>2025-05-25T13:57:55Z</time>
      </trkpt>
      <trkpt lat="50.47531" lon="3.05717">
        <ele>63</ele>
        <time>2025-05-25T13:57:58Z</time>
      </trkpt>
      <trkpt lat="50.47562" lon="3.05772">
        <ele>62</ele>
        <time>2025-05-25T13:58:09Z</time>
      </trkpt>
      <trkpt lat="50.47562" lon="3.05776">
        <ele>62</ele>
        <time>2025-05-25T13:58:10Z</time>
      </trkpt>
      <trkpt lat="50.47592" lon="3.05846">
        <ele>60</ele>
        <time>2025-05-25T13:58:22Z</time>
      </trkpt>
      <trkpt lat="50.4761" lon="3.05899">
        <ele>59</ele>
        <time>2025-05-25T13:58:31Z</time>
      </trkpt>
      <trkpt lat="50.47631" lon="3.05993">
        <ele>58</ele>
        <time>2025-05-25T13:58:46Z</time>
      </trkpt>
      <trkpt lat="50.47517" lon="3.06157">
        <ele>60</ele>
        <time>2025-05-25T13:59:22Z</time>
      </trkpt>
      <trkpt lat="50.47503" lon="3.06172">
        <ele>60</ele>
        <time>2025-05-25T13:59:26Z</time>
      </trkpt>
      <trkpt lat="50.47482" lon="3.06218">
        <ele>61</ele>
        <time>2025-05-25T13:59:34Z</time>
      </trkpt>
      <trkpt lat="50.47415" lon="3.06298">
        <ele>61</ele>
        <time>2025-05-25T13:59:54Z</time>
      </trkpt>
      <trkpt lat="50.47403" lon="3.06319">
        <ele>61</ele>
        <time>2025-05-25T13:59:58Z</time>
      </trkpt>
      <trkpt lat="50.47089" lon="3.0678">
        <ele>64</ele>
        <time>2025-05-25T14:01:39Z</time>
      </trkpt>
      <trkpt lat="50.47099" lon="3.06797">
        <ele>64</ele>
        <time>2025-05-25T14:01:42Z</time>
      </trkpt>
      <trkpt lat="50.46972" lon="3.06994">
        <ele>66</ele>
        <time>2025-05-25T14:02:24Z</time>
      </trkpt>
      <trkpt lat="50.46901" lon="3.07048">
        <ele>66</ele>
        <time>2025-05-25T14:02:42Z</time>
      </trkpt>
      <trkpt lat="50.46812" lon="3.07221">
        <ele>65</ele>
        <time>2025-05-25T14:03:15Z</time>
      </trkpt>
      <trkpt lat="50.46783" lon="3.07175">
        <ele>65</ele>
        <time>2025-05-25T14:03:25Z</time>
      </trkpt>
      <trkpt lat="50.46631" lon="3.06902">
        <ele>69</ele>
        <time>2025-05-25T14:04:19Z</time>
      </trkpt>
      <trkpt lat="50.46612" lon="3.06802">
        <ele>72</ele>
        <time>2025-05-25T14:04:34Z</time>
      </trkpt>
      <trkpt lat="50.46598" lon="3.06772">
        <ele>74</ele>
        <time>2025-05-25T14:04:40Z</time>
      </trkpt>
      <trkpt lat="50.4659" lon="3.0676">
        <ele>74</ele>
        <time>2025-05-25T14:04:42Z</time>
      </trkpt>
      <trkpt lat="50.46566" lon="3.06774">
        <ele>74</ele>
        <time>2025-05-25T14:04:48Z</time>
      </trkpt>
      <trkpt lat="50.46533" lon="3.06782">
        <ele>72</ele>
        <time>2025-05-25T14:04:56Z</time>
      </trkpt>
      <trkpt lat="50.46521" lon="3.06793">
        <ele>72</ele>
        <time>2025-05-25T14:04:59Z</time>
      </trkpt>
      <trkpt lat="50.46509" lon="3.06791">
        <ele>71</ele>
        <time>2025-05-25T14:05:02Z</time>
      </trkpt>
      <trkpt lat="50.46492" lon="3.06764">
        <ele>71</ele>
        <time>2025-05-25T14:05:08Z</time>
      </trkpt>
      <trkpt lat="50.4648" lon="3.06761">
        <ele>71</ele>
        <time>2025-05-25T14:05:11Z</time>
      </trkpt>
      <trkpt lat="50.46447" lon="3.06715">
        <ele>70</ele>
        <time>2025-05-25T14:05:21Z</time>
      </trkpt>
      <trkpt lat="50.46328" lon="3.06493">
        <ele>70</ele>
        <time>2025-05-25T14:06:04Z</time>
      </trkpt>
      <trkpt lat="50.46298" lon="3.0646">
        <ele>69</ele>
        <time>2025-05-25T14:06:13Z</time>
      </trkpt>
      <trkpt lat="50.46272" lon="3.06404">
        <ele>71</ele>
        <time>2025-05-25T14:06:23Z</time>
      </trkpt>
      <trkpt lat="50.4627" lon="3.06389">
        <ele>71</ele>
        <time>2025-05-25T14:06:25Z</time>
      </trkpt>
      <trkpt lat="50.46265" lon="3.06382">
        <ele>72</ele>
        <time>2025-05-25T14:06:27Z</time>
      </trkpt>
      <trkpt lat="50.46247" lon="3.06372">
        <ele>72</ele>
        <time>2025-05-25T14:06:31Z</time>
      </trkpt>
      <trkpt lat="50.46238" lon="3.06359">
        <ele>72</ele>
        <time>2025-05-25T14:06:34Z</time>
      </trkpt>
      <trkpt lat="50.46224" lon="3.06359">
        <ele>71</ele>
        <time>2025-05-25T14:06:37Z</time>
      </trkpt>
      <trkpt lat="50.46197" lon="3.06376">
        <ele>70</ele>
        <time>2025-05-25T14:06:44Z</time>
      </trkpt>
      <trkpt lat="50.4617" lon="3.06417">
        <ele>67</ele>
        <time>2025-05-25T14:06:53Z</time>
      </trkpt>
      <trkpt lat="50.46149" lon="3.06437">
        <ele>67</ele>
        <time>2025-05-25T14:06:59Z</time>
      </trkpt>
      <trkpt lat="50.46141" lon="3.06441">
        <ele>67</ele>
        <time>2025-05-25T14:07:01Z</time>
      </trkpt>
      <trkpt lat="50.46129" lon="3.06461">
        <ele>66</ele>
        <time>2025-05-25T14:07:05Z</time>
      </trkpt>
      <trkpt lat="50.4612" lon="3.06466">
        <ele>67</ele>
        <time>2025-05-25T14:07:07Z</time>
      </trkpt>
      <trkpt lat="50.46106" lon="3.0646">
        <ele>67</ele>
        <time>2025-05-25T14:07:10Z</time>
      </trkpt>
      <trkpt lat="50.46075" lon="3.06501">
        <ele>67</ele>
        <time>2025-05-25T14:07:20Z</time>
      </trkpt>
      <trkpt lat="50.46052" lon="3.06549">
        <ele>67</ele>
        <time>2025-05-25T14:07:29Z</time>
      </trkpt>
      <trkpt lat="50.46023" lon="3.06585">
        <ele>67</ele>
        <time>2025-05-25T14:07:37Z</time>
      </trkpt>
      <trkpt lat="50.45997" lon="3.06625">
        <ele>67</ele>
        <time>2025-05-25T14:07:46Z</time>
      </trkpt>
      <trkpt lat="50.45976" lon="3.06646">
        <ele>67</ele>
        <time>2025-05-25T14:07:52Z</time>
      </trkpt>
      <trkpt lat="50.45961" lon="3.06665">
        <ele>67</ele>
        <time>2025-05-25T14:07:56Z</time>
      </trkpt>
      <trkpt lat="50.45951" lon="3.06671">
        <ele>67</ele>
        <time>2025-05-25T14:07:59Z</time>
      </trkpt>
      <trkpt lat="50.45923" lon="3.06681">
        <ele>68</ele>
        <time>2025-05-25T14:08:05Z</time>
      </trkpt>
      <trkpt lat="50.45905" lon="3.06682">
        <ele>68</ele>
        <time>2025-05-25T14:08:10Z</time>
      </trkpt>
      <trkpt lat="50.45885" lon="3.06668">
        <ele>68</ele>
        <time>2025-05-25T14:08:15Z</time>
      </trkpt>
      <trkpt lat="50.45864" lon="3.06648">
        <ele>67</ele>
        <time>2025-05-25T14:08:20Z</time>
      </trkpt>
      <trkpt lat="50.45826" lon="3.06605">
        <ele>66</ele>
        <time>2025-05-25T14:08:31Z</time>
      </trkpt>
      <trkpt lat="50.45813" lon="3.06551">
        <ele>65</ele>
        <time>2025-05-25T14:08:40Z</time>
      </trkpt>
      <trkpt lat="50.45793" lon="3.06501">
        <ele>64</ele>
        <time>2025-05-25T14:08:49Z</time>
      </trkpt>
      <trkpt lat="50.45787" lon="3.06475">
        <ele>64</ele>
        <time>2025-05-25T14:08:53Z</time>
      </trkpt>
      <trkpt lat="50.45774" lon="3.06451">
        <ele>64</ele>
        <time>2025-05-25T14:08:58Z</time>
      </trkpt>
      <trkpt lat="50.45758" lon="3.06389">
        <ele>65</ele>
        <time>2025-05-25T14:09:08Z</time>
      </trkpt>
      <trkpt lat="50.45752" lon="3.06355">
        <ele>65</ele>
        <time>2025-05-25T14:09:13Z</time>
      </trkpt>
      <trkpt lat="50.45731" lon="3.06305">
        <ele>64</ele>
        <time>2025-05-25T14:09:22Z</time>
      </trkpt>
      <trkpt lat="50.45724" lon="3.06243">
        <ele>63</ele>
        <time>2025-05-25T14:09:31Z</time>
      </trkpt>
      <trkpt lat="50.45742" lon="3.06205">
        <ele>63</ele>
        <time>2025-05-25T14:09:38Z</time>
      </trkpt>
      <trkpt lat="50.45811" lon="3.06097">
        <ele>61</ele>
        <time>2025-05-25T14:10:01Z</time>
      </trkpt>
      <trkpt lat="50.45823" lon="3.06082">
        <ele>61</ele>
        <time>2025-05-25T14:10:04Z</time>
      </trkpt>
      <trkpt lat="50.4585" lon="3.06033">
        <ele>60</ele>
        <time>2025-05-25T14:10:14Z</time>
      </trkpt>
      <trkpt lat="50.45961" lon="3.05864">
        <ele>63</ele>
        <time>2025-05-25T14:10:50Z</time>
      </trkpt>
      <trkpt lat="50.45983" lon="3.05835">
        <ele>63</ele>
        <time>2025-05-25T14:10:57Z</time>
      </trkpt>
      <trkpt lat="50.46" lon="3.05801">
        <ele>62</ele>
        <time>2025-05-25T14:11:03Z</time>
      </trkpt>
      <trkpt lat="50.46052" lon="3.05726">
        <ele>62</ele>
        <time>2025-05-25T14:11:20Z</time>
      </trkpt>
      <trkpt lat="50.46065" lon="3.05702">
        <ele>63</ele>
        <time>2025-05-25T14:11:24Z</time>
      </trkpt>
      <trkpt lat="50.46089" lon="3.05678">
        <ele>64</ele>
        <time>2025-05-25T14:11:31Z</time>
      </trkpt>
      <trkpt lat="50.46069" lon="3.05621">
        <ele>62</ele>
        <time>2025-05-25T14:11:41Z</time>
      </trkpt>
      <trkpt lat="50.4595" lon="3.05391">
        <ele>54</ele>
        <time>2025-05-25T14:12:25Z</time>
      </trkpt>
      <trkpt lat="50.46043" lon="3.05243">
        <ele>58</ele>
        <time>2025-05-25T14:12:56Z</time>
      </trkpt>
      <trkpt lat="50.46003" lon="3.0518">
        <ele>55</ele>
        <time>2025-05-25T14:13:09Z</time>
      </trkpt>
      <trkpt lat="50.45978" lon="3.05132">
        <ele>56</ele>
        <time>2025-05-25T14:13:18Z</time>
      </trkpt>
      <trkpt lat="50.46059" lon="3.04998">
        <ele>54</ele>
        <time>2025-05-25T14:13:46Z</time>
      </trkpt>
      <trkpt lat="50.46088" lon="3.04957">
        <ele>52</ele>
        <time>2025-05-25T14:13:55Z</time>
      </trkpt>
      <trkpt lat="50.46155" lon="3.04849">
        <ele>49</ele>
        <time>2025-05-25T14:14:17Z</time>
      </trkpt>
      <trkpt lat="50.46223" lon="3.04747">
        <ele>50</ele>
        <time>2025-05-25T14:14:39Z</time>
      </trkpt>
      <trkpt lat="50.46132" lon="3.04607">
        <ele>52</ele>
        <time>2025-05-25T14:15:09Z</time>
      </trkpt>
      <trkpt lat="50.46081" lon="3.04535">
        <ele>51</ele>
        <time>2025-05-25T14:15:25Z</time>
      </trkpt>
      <trkpt lat="50.45991" lon="3.04389">
        <ele>52</ele>
        <time>2025-05-25T14:15:55Z</time>
      </trkpt>
      <trkpt lat="50.45982" lon="3.04364">
        <ele>51</ele>
        <time>2025-05-25T14:15:59Z</time>
      </trkpt>
      <trkpt lat="50.45894" lon="3.04489">
        <ele>53</ele>
        <time>2025-05-25T14:16:27Z</time>
      </trkpt>
      <trkpt lat="50.45831" lon="3.04424">
        <ele>51</ele>
        <time>2025-05-25T14:16:45Z</time>
      </trkpt>
      <trkpt lat="50.4575" lon="3.04358">
        <ele>51</ele>
        <time>2025-05-25T14:17:06Z</time>
      </trkpt>
      <trkpt lat="50.45655" lon="3.04272">
        <ele>43</ele>
        <time>2025-05-25T14:17:32Z</time>
      </trkpt>
      <trkpt lat="50.45652" lon="3.04319">
        <ele>43</ele>
        <time>2025-05-25T14:17:39Z</time>
      </trkpt>
      <trkpt lat="50.45633" lon="3.04411">
        <ele>43</ele>
        <time>2025-05-25T14:17:53Z</time>
      </trkpt>
      <trkpt lat="50.45634" lon="3.04513">
        <ele>44</ele>
        <time>2025-05-25T14:18:08Z</time>
      </trkpt>
      <trkpt lat="50.45642" lon="3.04598">
        <ele>47</ele>
        <time>2025-05-25T14:18:21Z</time>
      </trkpt>
      <trkpt lat="50.45637" lon="3.04621">
        <ele>48</ele>
        <time>2025-05-25T14:18:25Z</time>
      </trkpt>
      <trkpt lat="50.4563" lon="3.04633">
        <ele>49</ele>
        <time>2025-05-25T14:18:27Z</time>
      </trkpt>
      <trkpt lat="50.45617" lon="3.04601">
        <ele>48</ele>
        <time>2025-05-25T14:18:33Z</time>
      </trkpt>
      <trkpt lat="50.45602" lon="3.04581">
        <ele>47</ele>
        <time>2025-05-25T14:18:37Z</time>
      </trkpt>
      <trkpt lat="50.4557" lon="3.04526">
        <ele>46</ele>
        <time>2025-05-25T14:18:48Z</time>
      </trkpt>
      <trkpt lat="50.45552" lon="3.04505">
        <ele>46</ele>
        <time>2025-05-25T14:18:54Z</time>
      </trkpt>
      <trkpt lat="50.45527" lon="3.04505">
        <ele>46</ele>
        <time>2025-05-25T14:18:59Z</time>
      </trkpt>
      <trkpt lat="50.45471" lon="3.04654">
        <ele>47</ele>
        <time>2025-05-25T14:19:25Z</time>
      </trkpt>
      <trkpt lat="50.45436" lon="3.04725">
        <ele>46</ele>
        <time>2025-05-25T14:19:38Z</time>
      </trkpt>
      <trkpt lat="50.45427" lon="3.04739">
        <ele>46</ele>
        <time>2025-05-25T14:19:41Z</time>
      </trkpt>
      <trkpt lat="50.45431" lon="3.04765">
        <ele>46</ele>
        <time>2025-05-25T14:19:45Z</time>
      </trkpt>
      <trkpt lat="50.45488" lon="3.04836">
        <ele>47</ele>
        <time>2025-05-25T14:20:02Z</time>
      </trkpt>
      <trkpt lat="50.45525" lon="3.04927">
        <ele>49</ele>
        <time>2025-05-25T14:20:18Z</time>
      </trkpt>
      <trkpt lat="50.45429" lon="3.05205">
        <ele>45</ele>
        <time>2025-05-25T14:21:05Z</time>
      </trkpt>
      <trkpt lat="50.45374" lon="3.05356">
        <ele>43</ele>
        <time>2025-05-25T14:21:31Z</time>
      </trkpt>
      <trkpt lat="50.45354" lon="3.0538">
        <ele>44</ele>
        <time>2025-05-25T14:21:37Z</time>
      </trkpt>
      <trkpt lat="50.45254" lon="3.05476">
        <ele>42</ele>
        <time>2025-05-25T14:22:05Z</time>
      </trkpt>
      <trkpt lat="50.45227" lon="3.05507">
        <ele>42</ele>
        <time>2025-05-25T14:22:12Z</time>
      </trkpt>
      <trkpt lat="50.45196" lon="3.05531">
        <ele>42</ele>
        <time>2025-05-25T14:22:20Z</time>
      </trkpt>
      <trkpt lat="50.44805" lon="3.05912">
        <ele>35</ele>
        <time>2025-05-25T14:24:08Z</time>
      </trkpt>
      <trkpt lat="50.44787" lon="3.0599">
        <ele>36</ele>
        <time>2025-05-25T14:24:20Z</time>
      </trkpt>
      <trkpt lat="50.44777" lon="3.06052">
        <ele>36</ele>
        <time>2025-05-25T14:24:30Z</time>
      </trkpt>
      <trkpt lat="50.44785" lon="3.06076">
        <ele>36</ele>
        <time>2025-05-25T14:24:34Z</time>
      </trkpt>
      <trkpt lat="50.44798" lon="3.06079">
        <ele>37</ele>
        <time>2025-05-25T14:24:37Z</time>
      </trkpt>
      <trkpt lat="50.4482" lon="3.06063">
        <ele>38</ele>
        <time>2025-05-25T14:24:43Z</time>
      </trkpt>
      <trkpt lat="50.44845" lon="3.06092">
        <ele>38</ele>
        <time>2025-05-25T14:24:50Z</time>
      </trkpt>
      <trkpt lat="50.44868" lon="3.06076">
        <ele>39</ele>
        <time>2025-05-25T14:24:56Z</time>
      </trkpt>
      <trkpt lat="50.44887" lon="3.06093">
        <ele>39</ele>
        <time>2025-05-25T14:25:01Z</time>
      </trkpt>
      <trkpt lat="50.44888" lon="3.0615">
        <ele>38</ele>
        <time>2025-05-25T14:25:09Z</time>
      </trkpt>
      <trkpt lat="50.44866" lon="3.06151">
        <ele>38</ele>
        <time>2025-05-25T14:25:14Z</time>
      </trkpt>
      <trkpt lat="50.44839" lon="3.06138">
        <ele>38</ele>
        <time>2025-05-25T14:25:21Z</time>
      </trkpt>
      <trkpt lat="50.4484" lon="3.06162">
        <ele>38</ele>
        <time>2025-05-25T14:25:25Z</time>
      </trkpt>
      <trkpt lat="50.44835" lon="3.0619">
        <ele>39</ele>
        <time>2025-05-25T14:25:29Z</time>
      </trkpt>
      <trkpt lat="50.44827" lon="3.0621">
        <ele>39</ele>
        <time>2025-05-25T14:25:32Z</time>
      </trkpt>
      <trkpt lat="50.44821" lon="3.06241">
        <ele>40</ele>
        <time>2025-05-25T14:25:37Z</time>
      </trkpt>
      <trkpt lat="50.44822" lon="3.06268">
        <ele>41</ele>
        <time>2025-05-25T14:25:41Z</time>
      </trkpt>
      <trkpt lat="50.44817" lon="3.06285">
        <ele>42</ele>
        <time>2025-05-25T14:25:44Z</time>
      </trkpt>
      <trkpt lat="50.44776" lon="3.06211">
        <ele>38</ele>
        <time>2025-05-25T14:25:59Z</time>
      </trkpt>
      <trkpt lat="50.44781" lon="3.06089">
        <ele>36</ele>
        <time>2025-05-25T14:26:17Z</time>
      </trkpt>
      <trkpt lat="50.44769" lon="3.06063">
        <ele>35</ele>
        <time>2025-05-25T14:26:22Z</time>
      </trkpt>
      <trkpt lat="50.44756" lon="3.06061">
        <ele>35</ele>
        <time>2025-05-25T14:26:25Z</time>
      </trkpt>
      <trkpt lat="50.4469" lon="3.06101">
        <ele>35</ele>
        <time>2025-05-25T14:26:41Z</time>
      </trkpt>
      <trkpt lat="50.44668" lon="3.06104">
        <ele>35</ele>
        <time>2025-05-25T14:26:46Z</time>
      </trkpt>
      <trkpt lat="50.44655" lon="3.06087">
        <ele>34</ele>
        <time>2025-05-25T14:26:50Z</time>
      </trkpt>
      <trkpt lat="50.44632" lon="3.06089">
        <ele>34</ele>
        <time>2025-05-25T14:26:56Z</time>
      </trkpt>
      <trkpt lat="50.44596" lon="3.06056">
        <ele>33</ele>
        <time>2025-05-25T14:27:05Z</time>
      </trkpt>
      <trkpt lat="50.44561" lon="3.06004">
        <ele>32</ele>
        <time>2025-05-25T14:27:17Z</time>
      </trkpt>
      <trkpt lat="50.44467" lon="3.05913">
        <ele>31</ele>
        <time>2025-05-25T14:27:42Z</time>
      </trkpt>
      <trkpt lat="50.44435" lon="3.0598">
        <ele>29</ele>
        <time>2025-05-25T14:27:55Z</time>
      </trkpt>
      <trkpt lat="50.44433" lon="3.05996">
        <ele>29</ele>
        <time>2025-05-25T14:27:57Z</time>
      </trkpt>
      <trkpt lat="50.44441" lon="3.06">
        <ele>30</ele>
        <time>2025-05-25T14:27:59Z</time>
      </trkpt>
      <trkpt lat="50.44392" lon="3.06107">
        <ele>30</ele>
        <time>2025-05-25T14:28:19Z</time>
      </trkpt>
      <trkpt lat="50.44366" lon="3.06171">
        <ele>29</ele>
        <time>2025-05-25T14:28:30Z</time>
      </trkpt>
      <trkpt lat="50.44337" lon="3.0613">
        <ele>29</ele>
        <time>2025-05-25T14:28:39Z</time>
      </trkpt>
      <trkpt lat="50.44277" lon="3.06273">
        <ele>30</ele>
        <time>2025-05-25T14:29:05Z</time>
      </trkpt>
      <trkpt lat="50.44251" lon="3.06318">
        <ele>31</ele>
        <time>2025-05-25T14:29:14Z</time>
      </trkpt>
      <trkpt lat="50.44249" lon="3.06336">
        <ele>31</ele>
        <time>2025-05-25T14:29:16Z</time>
      </trkpt>
      <trkpt lat="50.441" lon="3.06719">
        <ele>30</ele>
        <time>2025-05-25T14:30:23Z</time>
      </trkpt>
      <trkpt lat="50.44055" lon="3.06803">
        <ele>30</ele>
        <time>2025-05-25T14:30:40Z</time>
      </trkpt>
      <trkpt lat="50.44015" lon="3.06848">
        <ele>30</ele>
        <time>2025-05-25T14:30:51Z</time>
      </trkpt>
      <trkpt lat="50.43975" lon="3.06877">
        <ele>29</ele>
        <time>2025-05-25T14:31:01Z</time>
      </trkpt>
      <trkpt lat="50.43939" lon="3.06893">
        <ele>28</ele>
        <time>2025-05-25T14:31:10Z</time>
      </trkpt>
      <trkpt lat="50.43825" lon="3.07048">
        <ele>29</ele>
        <time>2025-05-25T14:31:45Z</time>
      </trkpt>
      <trkpt lat="50.43809" lon="3.07075">
        <ele>30</ele>
        <time>2025-05-25T14:31:51Z</time>
      </trkpt>
      <trkpt lat="50.43717" lon="3.07319">
        <ele>26</ele>
        <time>2025-05-25T14:32:33Z</time>
      </trkpt>
      <trkpt lat="50.43839" lon="3.07397">
        <ele>28</ele>
        <time>2025-05-25T14:33:04Z</time>
      </trkpt>
      <trkpt lat="50.43836" lon="3.07434">
        <ele>28</ele>
        <time>2025-05-25T14:33:09Z</time>
      </trkpt>
      <trkpt lat="50.43838" lon="3.07513">
        <ele>28</ele>
        <time>2025-05-25T14:33:21Z</time>
      </trkpt>
      <trkpt lat="50.43854" lon="3.07647">
        <ele>30</ele>
        <time>2025-05-25T14:33:41Z</time>
      </trkpt>
      <trkpt lat="50.43844" lon="3.07925">
        <ele>28</ele>
        <time>2025-05-25T14:34:23Z</time>
      </trkpt>
      <trkpt lat="50.43795" lon="3.08496">
        <ele>28</ele>
        <time>2025-05-25T14:35:48Z</time>
      </trkpt>
      <trkpt lat="50.4383" lon="3.08992">
        <ele>29</ele>
        <time>2025-05-25T14:37:03Z</time>
      </trkpt>
      <trkpt lat="50.43852" lon="3.09217">
        <ele>30</ele>
        <time>2025-05-25T14:37:36Z</time>
      </trkpt>
      <trkpt lat="50.43896" lon="3.09317">
        <ele>33</ele>
        <time>2025-05-25T14:37:55Z</time>
      </trkpt>
      <trkpt lat="50.43912" lon="3.09392">
        <ele>34</ele>
        <time>2025-05-25T14:38:06Z</time>
      </trkpt>
      <trkpt lat="50.43924" lon="3.09483">
        <ele>34</ele>
        <time>2025-05-25T14:38:20Z</time>
      </trkpt>
      <trkpt lat="50.43917" lon="3.09676">
        <ele>35</ele>
        <time>2025-05-25T14:38:49Z</time>
      </trkpt>
      <trkpt lat="50.43908" lon="3.09707">
        <ele>36</ele>
        <time>2025-05-25T14:38:54Z</time>
      </trkpt>
      <trkpt lat="50.43954" lon="3.09782">
        <ele>39</ele>
        <time>2025-05-25T14:39:09Z</time>
      </trkpt>
      <trkpt lat="50.4398" lon="3.09805">
        <ele>40</ele>
        <time>2025-05-25T14:39:16Z</time>
      </trkpt>
      <trkpt lat="50.43995" lon="3.09809">
        <ele>41</ele>
        <time>2025-05-25T14:39:20Z</time>
      </trkpt>
      <trkpt lat="50.44088" lon="3.09853">
        <ele>43</ele>
        <time>2025-05-25T14:39:43Z</time>
      </trkpt>
      <trkpt lat="50.4408" lon="3.09899">
        <ele>44</ele>
        <time>2025-05-25T14:39:50Z</time>
      </trkpt>
      <trkpt lat="50.44071" lon="3.09996">
        <ele>45</ele>
        <time>2025-05-25T14:40:04Z</time>
      </trkpt>
      <trkpt lat="50.44125" lon="3.10022">
        <ele>46</ele>
        <time>2025-05-25T14:40:18Z</time>
      </trkpt>
      <trkpt lat="50.44138" lon="3.1004">
        <ele>46</ele>
        <time>2025-05-25T14:40:22Z</time>
      </trkpt>
      <trkpt lat="50.44153" lon="3.10032">
        <ele>47</ele>
        <time>2025-05-25T14:40:25Z</time>
      </trkpt>
      <trkpt lat="50.44152" lon="3.10138">
        <ele>46</ele>
        <time>2025-05-25T14:40:41Z</time>
      </trkpt>
      <trkpt lat="50.4413" lon="3.1028">
        <ele>46</ele>
        <time>2025-05-25T14:41:03Z</time>
      </trkpt>
      <trkpt lat="50.44126" lon="3.10425">
        <ele>45</ele>
        <time>2025-05-25T14:41:24Z</time>
      </trkpt>
      <trkpt lat="50.44067" lon="3.10568">
        <ele>46</ele>
        <time>2025-05-25T14:41:50Z</time>
      </trkpt>
      <trkpt lat="50.44084" lon="3.10775">
        <ele>46</ele>
        <time>2025-05-25T14:42:21Z</time>
      </trkpt>
      <trkpt lat="50.44071" lon="3.10901">
        <ele>46</ele>
        <time>2025-05-25T14:42:40Z</time>
      </trkpt>
      <trkpt lat="50.44075" lon="3.10996">
        <ele>46</ele>
        <time>2025-05-25T14:42:54Z</time>
      </trkpt>
      <trkpt lat="50.44132" lon="3.11251">
        <ele>41</ele>
        <time>2025-05-25T14:43:34Z</time>
      </trkpt>
      <trkpt lat="50.44131" lon="3.11432">
        <ele>39</ele>
        <time>2025-05-25T14:44:01Z</time>
      </trkpt>
      <trkpt lat="50.44166" lon="3.11619">
        <ele>36</ele>
        <time>2025-05-25T14:44:30Z</time>
      </trkpt>
      <trkpt lat="50.44198" lon="3.11655">
        <ele>36</ele>
        <time>2025-05-25T14:44:39Z</time>
      </trkpt>
      <trkpt lat="50.44126" lon="3.11994">
        <ele>37</ele>
        <time>2025-05-25T14:45:32Z</time>
      </trkpt>
      <trkpt lat="50.43734" lon="3.11755">
        <ele>46</ele>
        <time>2025-05-25T14:47:11Z</time>
      </trkpt>
      <trkpt lat="50.43731" lon="3.11801">
        <ele>45</ele>
        <time>2025-05-25T14:47:17Z</time>
      </trkpt>
      <trkpt lat="50.43694" lon="3.11975">
        <ele>44</ele>
        <time>2025-05-25T14:47:45Z</time>
      </trkpt>
      <trkpt lat="50.4367" lon="3.12066">
        <ele>45</ele>
        <time>2025-05-25T14:47:59Z</time>
      </trkpt>
      <trkpt lat="50.43468" lon="3.12645">
        <ele>42</ele>
        <time>2025-05-25T14:49:38Z</time>
      </trkpt>
      <trkpt lat="50.43436" lon="3.12755">
        <ele>43</ele>
        <time>2025-05-25T14:49:56Z</time>
      </trkpt>
      <trkpt lat="50.43428" lon="3.12756">
        <ele>43</ele>
        <time>2025-05-25T14:49:57Z</time>
      </trkpt>
      <trkpt lat="50.434" lon="3.12723">
        <ele>42</ele>
        <time>2025-05-25T14:50:06Z</time>
      </trkpt>
      <trkpt lat="50.43383" lon="3.12714">
        <ele>42</ele>
        <time>2025-05-25T14:50:10Z</time>
      </trkpt>
      <trkpt lat="50.43381" lon="3.12797">
        <ele>42</ele>
        <time>2025-05-25T14:50:22Z</time>
      </trkpt>
      <trkpt lat="50.43376" lon="3.12869">
        <ele>43</ele>
        <time>2025-05-25T14:50:33Z</time>
      </trkpt>
      <trkpt lat="50.43343" lon="3.13078">
        <ele>43</ele>
        <time>2025-05-25T14:51:05Z</time>
      </trkpt>
      <trkpt lat="50.43302" lon="3.13264">
        <ele>42</ele>
        <time>2025-05-25T14:51:34Z</time>
      </trkpt>
      <trkpt lat="50.43307" lon="3.1329">
        <ele>42</ele>
        <time>2025-05-25T14:51:38Z</time>
      </trkpt>
      <trkpt lat="50.43357" lon="3.13283">
        <ele>42</ele>
        <time>2025-05-25T14:51:50Z</time>
      </trkpt>
      <trkpt lat="50.43362" lon="3.13676">
        <ele>42</ele>
        <time>2025-05-25T14:52:48Z</time>
      </trkpt>
      <trkpt lat="50.43351" lon="3.13758">
        <ele>42</ele>
        <time>2025-05-25T14:53:01Z</time>
      </trkpt>
      <trkpt lat="50.43307" lon="3.13965">
        <ele>45</ele>
        <time>2025-05-25T14:53:33Z</time>
      </trkpt>
      <trkpt lat="50.43306" lon="3.13998">
        <ele>45</ele>
        <time>2025-05-25T14:53:38Z</time>
      </trkpt>
      <trkpt lat="50.43319" lon="3.14031">
        <ele>45</ele>
        <time>2025-05-25T14:53:44Z</time>
      </trkpt>
      <trkpt lat="50.4335" lon="3.14076">
        <ele>44</ele>
        <time>2025-05-25T14:53:54Z</time>
      </trkpt>
      <trkpt lat="50.43365" lon="3.14125">
        <ele>44</ele>
        <time>2025-05-25T14:54:02Z</time>
      </trkpt>
      <trkpt lat="50.43424" lon="3.1436">
        <ele>40</ele>
        <time>2025-05-25T14:54:40Z</time>
      </trkpt>
      <trkpt lat="50.43406" lon="3.14386">
        <ele>41</ele>
        <time>2025-05-25T14:54:45Z</time>
      </trkpt>
      <trkpt lat="50.43276" lon="3.14441">
        <ele>46</ele>
        <time>2025-05-25T14:55:17Z</time>
      </trkpt>
      <trkpt lat="50.42939" lon="3.1459">
        <ele>37</ele>
        <time>2025-05-25T14:56:38Z</time>
      </trkpt>
      <trkpt lat="50.42903" lon="3.14634">
        <ele>36</ele>
        <time>2025-05-25T14:56:49Z</time>
      </trkpt>
      <trkpt lat="50.42872" lon="3.14719">
        <ele>33</ele>
        <time>2025-05-25T14:57:04Z</time>
      </trkpt>
      <trkpt lat="50.42865" lon="3.14763">
        <ele>32</ele>
        <time>2025-05-25T14:57:10Z</time>
      </trkpt>
      <trkpt lat="50.42869" lon="3.14948">
        <ele>30</ele>
        <time>2025-05-25T14:57:38Z</time>
      </trkpt>
      <trkpt lat="50.43029" lon="3.14863">
        <ele>39</ele>
        <time>2025-05-25T14:58:17Z</time>
      </trkpt>
      <trkpt lat="50.43065" lon="3.14851">
        <ele>41</ele>
        <time>2025-05-25T14:58:26Z</time>
      </trkpt>
      <trkpt lat="50.43105" lon="3.14841">
        <ele>43</ele>
        <time>2025-05-25T14:58:36Z</time>
      </trkpt>
      <trkpt lat="50.43122" lon="3.14903">
        <ele>41</ele>
        <time>2025-05-25T14:58:46Z</time>
      </trkpt>
      <trkpt lat="50.4313" lon="3.14978">
        <ele>42</ele>
        <time>2025-05-25T14:58:57Z</time>
      </trkpt>
      <trkpt lat="50.43073" lon="3.15045">
        <ele>39</ele>
        <time>2025-05-25T14:59:13Z</time>
      </trkpt>
      <trkpt lat="50.43069" lon="3.15068">
        <ele>39</ele>
        <time>2025-05-25T14:59:17Z</time>
      </trkpt>
      <trkpt lat="50.43077" lon="3.1508">
        <ele>39</ele>
        <time>2025-05-25T14:59:20Z</time>
      </trkpt>
      <trkpt lat="50.43264" lon="3.1518">
        <ele>46</ele>
        <time>2025-05-25T15:00:06Z</time>
      </trkpt>
      <trkpt lat="50.43274" lon="3.15193">
        <ele>45</ele>
        <time>2025-05-25T15:00:09Z</time>
      </trkpt>
      <trkpt lat="50.43307" lon="3.15201">
        <ele>45</ele>
        <time>2025-05-25T15:00:17Z</time>
      </trkpt>
      <trkpt lat="50.43439" lon="3.15269">
        <ele>43</ele>
        <time>2025-05-25T15:00:49Z</time>
      </trkpt>
      <trkpt lat="50.43545" lon="3.15335">
        <ele>43</ele>
        <time>2025-05-25T15:01:16Z</time>
      </trkpt>
      <trkpt lat="50.43611" lon="3.15344">
        <ele>45</ele>
        <time>2025-05-25T15:01:31Z</time>
      </trkpt>
      <trkpt lat="50.43691" lon="3.15292">
        <ele>46</ele>
        <time>2025-05-25T15:01:51Z</time>
      </trkpt>
      <trkpt lat="50.43699" lon="3.15272">
        <ele>47</ele>
        <time>2025-05-25T15:01:55Z</time>
      </trkpt>
      <trkpt lat="50.43747" lon="3.15247">
        <ele>47</ele>
        <time>2025-05-25T15:02:07Z</time>
      </trkpt>
      <trkpt lat="50.43892" lon="3.15206">
        <ele>41</ele>
        <time>2025-05-25T15:02:41Z</time>
      </trkpt>
      <trkpt lat="50.43904" lon="3.15183">
        <ele>41</ele>
        <time>2025-05-25T15:02:45Z</time>
      </trkpt>
      <trkpt lat="50.43921" lon="3.15111">
        <ele>41</ele>
        <time>2025-05-25T15:02:57Z</time>
      </trkpt>
      <trkpt lat="50.43931" lon="3.15048">
        <ele>41</ele>
        <time>2025-05-25T15:03:07Z</time>
      </trkpt>
      <trkpt lat="50.43936" lon="3.14997">
        <ele>40</ele>
        <time>2025-05-25T15:03:14Z</time>
      </trkpt>
      <trkpt lat="50.4393" lon="3.14983">
        <ele>41</ele>
        <time>2025-05-25T15:03:17Z</time>
      </trkpt>
      <trkpt lat="50.43808" lon="3.15004">
        <ele>48</ele>
        <time>2025-05-25T15:03:45Z</time>
      </trkpt>
      <trkpt lat="50.43736" lon="3.15024">
        <ele>48</ele>
        <time>2025-05-25T15:04:02Z</time>
      </trkpt>
      <trkpt lat="50.43703" lon="3.14718">
        <ele>44</ele>
        <time>2025-05-25T15:04:49Z</time>
      </trkpt>
      <trkpt lat="50.43668" lon="3.14479">
        <ele>39</ele>
        <time>2025-05-25T15:05:25Z</time>
      </trkpt>
      <trkpt lat="50.43775" lon="3.14446">
        <ele>39</ele>
        <time>2025-05-25T15:05:51Z</time>
      </trkpt>
      <trkpt lat="50.43889" lon="3.14422">
        <ele>36</ele>
        <time>2025-05-25T15:06:17Z</time>
      </trkpt>
      <trkpt lat="50.43905" lon="3.14428">
        <ele>36</ele>
        <time>2025-05-25T15:06:21Z</time>
      </trkpt>
      <trkpt lat="50.43909" lon="3.14482">
        <ele>37</ele>
        <time>2025-05-25T15:06:29Z</time>
      </trkpt>
      <trkpt lat="50.43909" lon="3.14535">
        <ele>38</ele>
        <time>2025-05-25T15:06:37Z</time>
      </trkpt>
      <trkpt lat="50.43902" lon="3.14573">
        <ele>39</ele>
        <time>2025-05-25T15:06:43Z</time>
      </trkpt>
      <trkpt lat="50.43912" lon="3.14629">
        <ele>39</ele>
        <time>2025-05-25T15:06:52Z</time>
      </trkpt>
      <trkpt lat="50.43917" lon="3.14676">
        <ele>39</ele>
        <time>2025-05-25T15:06:59Z</time>
      </trkpt>
      <trkpt lat="50.43929" lon="3.14829">
        <ele>40</ele>
        <time>2025-05-25T15:07:22Z</time>
      </trkpt>
      <trkpt lat="50.43954" lon="3.14819">
        <ele>38</ele>
        <time>2025-05-25T15:07:28Z</time>
      </trkpt>
      <trkpt lat="50.44042" lon="3.14738">
        <ele>33</ele>
        <time>2025-05-25T15:07:52Z</time>
      </trkpt>
      <trkpt lat="50.44107" lon="3.14688">
        <ele>32</ele>
        <time>2025-05-25T15:08:09Z</time>
      </trkpt>
      <trkpt lat="50.44119" lon="3.14675">
        <ele>32</ele>
        <time>2025-05-25T15:08:12Z</time>
      </trkpt>
      <trkpt lat="50.44123" lon="3.14659">
        <ele>32</ele>
        <time>2025-05-25T15:08:15Z</time>
      </trkpt>
      <trkpt lat="50.44124" lon="3.14617">
        <ele>32</ele>
        <time>2025-05-25T15:08:21Z</time>
      </trkpt>
      <trkpt lat="50.44131" lon="3.14605">
        <ele>32</ele>
        <time>2025-05-25T15:08:23Z</time>
      </trkpt>
      <trkpt lat="50.44166" lon="3.14597">
        <ele>33</ele>
        <time>2025-05-25T15:08:31Z</time>
      </trkpt>
      <trkpt lat="50.44171" lon="3.1454">
        <ele>32</ele>
        <time>2025-05-25T15:08:40Z</time>
      </trkpt>
      <trkpt lat="50.44167" lon="3.14524">
        <ele>32</ele>
        <time>2025-05-25T15:08:43Z</time>
      </trkpt>
      <trkpt lat="50.44127" lon="3.14526">
        <ele>32</ele>
        <time>2025-05-25T15:08:52Z</time>
      </trkpt>
      <trkpt lat="50.44104" lon="3.14521">
        <ele>32</ele>
        <time>2025-05-25T15:08:57Z</time>
      </trkpt>
      <trkpt lat="50.44096" lon="3.14378">
        <ele>32</ele>
        <time>2025-05-25T15:09:19Z</time>
      </trkpt>
      <trkpt lat="50.44498" lon="3.14315">
        <ele>31</ele>
        <time>2025-05-25T15:10:53Z</time>
      </trkpt>
      <trkpt lat="50.44452" lon="3.13859">
        <ele>32</ele>
        <time>2025-05-25T15:12:02Z</time>
      </trkpt>
      <trkpt lat="50.44658" lon="3.1391">
        <ele>31</ele>
        <time>2025-05-25T15:12:50Z</time>
      </trkpt>
      <trkpt lat="50.44942" lon="3.13958">
        <ele>32</ele>
        <time>2025-05-25T15:13:57Z</time>
      </trkpt>
      <trkpt lat="50.45062" lon="3.13569">
        <ele>35</ele>
        <time>2025-05-25T15:15:01Z</time>
      </trkpt>
      <trkpt lat="50.45296" lon="3.13644">
        <ele>36</ele>
        <time>2025-05-25T15:15:57Z</time>
      </trkpt>
      <trkpt lat="50.45465" lon="3.1368">
        <ele>39</ele>
        <time>2025-05-25T15:16:37Z</time>
      </trkpt>
      <trkpt lat="50.45655" lon="3.13683">
        <ele>42</ele>
        <time>2025-05-25T15:17:21Z</time>
      </trkpt>
      <trkpt lat="50.45753" lon="3.13682">
        <ele>42</ele>
        <time>2025-05-25T15:17:44Z</time>
      </trkpt>
    </trkseg>
  </trk>
</gpx>